Weather History for Charlottesville, VA

Change the Weather History Date:

Saturday, September 13, 2014

  Actual Average Record
Temperature  
Mean Temperature 66 °F 68 °F  
Max Temperature 75 °F 79 °F 96 °F (1998)
Min Temperature 56 °F 57 °F 44 °F (1943)
Degree Days  
Heating Degree Days 0 1  
Month to date heating degree days 0 5  
Since 1 July heating degree days 0 8  
Cooling Degree Days 1 4  
Month to date cooling degree days 132 70  
Year to date cooling degree days 1060 980  
Growing Degree Days 17 (Base 50)    
Moisture  
Dew Point 58 °F    
Average Humidity 75    
Maximum Humidity 87    
Minimum Humidity 63    
Precipitation  
Precipitation 0.01 in 0.15 in 0.35 in (2003)
Month to date precipitation 0.28 1.42  
Year to date precipitation 28.78 29.56  
Sea Level Pressure  
Sea Level Pressure 30.13 in    
Wind  
Wind Speed 4 mph (NNE)    
Max Wind Speed 12 mph    
Max Gust Speed 17 mph    
Visibility 10 miles    
Events Rain    
T = Trace of Precipitation, MM = Missing Value Source: NWS Daily Summary

Daily Weather History Graph

Daily Weather History Graph

Search for Another Location

Airport:

Trip Planner

Search our weather history database for the weather conditions in past years. The results will help you decide how hot, cold, wet, or windy it might be!

Date:

Astronomy

Sep. 13, 2014 Rise Set
Actual Time 6:53 AM EDT 7:24 PM EDT
Civil Twilight 6:27 AM EDT 7:51 PM EDT
Nautical Twilight 5:56 AM EDT 8:22 PM EDT
Astronomical Twilight 5:24 AM EDT 8:54 PM EDT
Moon 10:33 PM EDT (9/13) 11:54 AM EDT (9/13)
Length of Visible Light 13h 24m
Length of Day
12h 31m
Waning Gibbous, 74% of the Moon is Illuminated
Sep 13
Waning Gibbous
Sep 15
Last Quarter
Sep 24
New
Oct 1
First Quarter
Oct 8
Full

Hourly Weather History & Observations

Time (EDT) Temp. Dew Point Humidity Pressure Visibility Wind Dir Wind Speed Gust Speed Precip Events Conditions
12:53 AM 64.9 °F 57.9 °F 78% 30.13 in 10.0 mi Calm Calm - N/A   Overcast
1:53 AM 64.9 °F 59.0 °F 81% 30.12 in 10.0 mi Calm Calm - N/A   Overcast
2:53 AM 64.9 °F 57.9 °F 78% 30.11 in 10.0 mi East 3.5 mph - N/A   Overcast
3:53 AM 64.9 °F 57.9 °F 78% 30.10 in 10.0 mi NNE 4.6 mph - N/A   Overcast
4:53 AM 64.0 °F 57.9 °F 80% 30.09 in 10.0 mi ENE 5.8 mph - N/A   Overcast
5:53 AM 64.0 °F 57.0 °F 78% 30.10 in 10.0 mi NE 6.9 mph - N/A   Overcast
6:53 AM 63.0 °F 57.0 °F 81% 30.11 in 10.0 mi NNE 6.9 mph - 0.00 in   Overcast
7:45 AM 63.0 °F 57.0 °F 81% 30.13 in 10.0 mi NE 6.9 mph - 0.00 in   Overcast
7:53 AM 63.0 °F 57.0 °F 81% 30.12 in 7.0 mi NNE 5.8 mph - 0.00 in   Overcast
8:09 AM 63.0 °F 57.0 °F 81% 30.13 in 10.0 mi NNE 4.6 mph - N/A   Overcast
8:22 AM 63.0 °F 57.0 °F 81% 30.12 in 10.0 mi NNE 5.8 mph - N/A   Overcast
9:15 AM 63.0 °F 57.9 °F 84% 30.12 in 10.0 mi Calm Calm - N/A   Overcast
9:53 AM 64.0 °F 57.0 °F 78% 30.11 in 10.0 mi Calm Calm - 0.00 in Rain Light Rain
10:24 AM 64.0 °F 57.9 °F 80% 30.12 in 10.0 mi Calm Calm - 0.01 in   Overcast
10:53 AM 64.0 °F 57.9 °F 80% 30.11 in 10.0 mi Calm Calm - 0.01 in Rain Light Rain
11:53 AM 64.0 °F 59.0 °F 84% 30.12 in 10.0 mi WNW 3.5 mph - 0.00 in   Overcast
12:53 PM 64.9 °F 61.0 °F 87% 30.12 in 10.0 mi Calm Calm - 0.00 in   Overcast
1:31 PM 70.0 °F 63.0 °F 78% 30.12 in 10.0 mi Variable 3.5 mph - N/A   Overcast
1:53 PM 70.0 °F 62.1 °F 76% 30.10 in 10.0 mi Calm Calm - N/A   Overcast
2:53 PM 73.0 °F 63.0 °F 71% 30.08 in 10.0 mi NE 3.5 mph - N/A   Mostly Cloudy
3:53 PM 73.0 °F 63.0 °F 71% 30.09 in 10.0 mi NNE 5.8 mph - N/A   Mostly Cloudy
4:53 PM 73.9 °F 63.0 °F 68% 30.09 in 10.0 mi North 4.6 mph - N/A   Mostly Cloudy
5:53 PM 70.0 °F 63.0 °F 78% 30.12 in 10.0 mi ENE 6.9 mph - N/A   Overcast
6:26 PM 69.1 °F 64.0 °F 84% 30.14 in 10.0 mi Variable 3.5 mph - N/A   Overcast
6:45 PM 71.1 °F 61.0 °F 70% 30.15 in 10.0 mi North 10.4 mph - N/A   Overcast
6:53 PM 70.0 °F 57.0 °F 63% 30.14 in 10.0 mi NNW 10.4 mph - N/A   Overcast
7:53 PM 66.0 °F 53.1 °F 63% 30.17 in 10.0 mi North 9.2 mph - N/A   Clear
8:53 PM 64.0 °F 51.1 °F 63% 30.21 in 10.0 mi NNE 3.5 mph - N/A   Partly Cloudy
9:53 PM 62.1 °F 51.1 °F 67% 30.22 in 10.0 mi Calm Calm - N/A   Mostly Cloudy
10:53 PM 61.0 °F 52.0 °F 72% 30.23 in 10.0 mi NW 3.5 mph - N/A   Overcast
11:53 PM 57.9 °F 52.0 °F 81% 30.23 in 10.0 mi Calm Calm - N/A   Scattered Clouds